| time (UTC) | temp F | wind direction | speed knots | gust knots | rain 1hr in | rain 24hr in | rain mn in | humidity % | barometer mb |
| 20260504025604 | 52 | 179 | 0.0 | 0.0 | 0.02 | 0.13 | 0.13 | 88 | 1015.9 |
| 20260504022606 | 52 | 84 | 0.0 | 0.0 | 0.03 | 0.11 | 0.11 | 89 | 1015.9 |
| 20260504012605 | 52 | 142 | 0.9 | 0.9 | 0.05 | 0.09 | 0.09 | 85 | 1016.2 |
| 20260504005606 | 52 | 172 | 0.9 | 0.9 | 0.07 | 0.07 | 0.07 | 84 | 1016.2 |
| 20260504002605 | 53 | 169 | 3.5 | 3.5 | 0.04 | 0.04 | 0.04 | 80 | 1016.5 |
| 20260503235605 | 58 | 174 | 2.6 | 3.5 | 0.00 | 0.00 | 0.00 | 63 | 1016.2 |
| 20260503232605 | 60 | 177 | 2.6 | 2.6 | 0.00 | 0.00 | 0.00 | 53 | 1016.2 |
| 20260503225606 | 58 | 180 | 1.7 | 2.6 | 0.00 | 0.00 | 0.00 | 55 | 1016.2 |
| 20260503215604 | 56 | 264 | 0.0 | 0.0 | 0.00 | 0.00 | 0.00 | 61 | 1016.5 |
| 20260503212606 | 57 | 180 | 0.0 | 0.0 | 0.00 | 0.00 | 0.00 | 57 | 1016.5 |
| 20260503205606 | 57 | 177 | 0.9 | 0.9 | 0.00 | 0.00 | 0.00 | 56 | 1016.5 |
| 20260503202604 | 57 | 184 | 0.0 | 0.0 | 0.00 | 0.00 | 0.00 | 54 | 1016.2 |
| 20260503195605 | 58 | 182 | 0.9 | 0.9 | 0.00 | 0.00 | 0.00 | 50 | 1016.2 |
| 20260503192606 | 60 | 168 | 0.9 | 0.9 | 0.00 | 0.00 | 0.00 | 52 | 1015.9 |
| 20260503185604 | 62 | 184 | 0.9 | 0.9 | 0.00 | 0.00 | 0.00 | 57 | 1015.9 |
| 20260503182605 | 64 | 172 | 1.7 | 1.7 | 0.00 | 0.00 | 0.00 | 52 | 1015.5 |
| 20260503172605 | 64 | 170 | 2.6 | 2.6 | 0.00 | 0.00 | 0.00 | 53 | 1015.9 |
| 20260503072606 | 58 | 168 | 0.9 | 0.9 | 0.00 | 0.00 | 0.00 | 55 | 1017.6 |
| 20260503052605 | 52 | 162 | 0.0 | 0.0 | 0.00 | 0.00 | 0.00 | 65 | 1017.2 |
| 20260503045604 | 51 | 54 | 0.0 | 0.0 | 0.00 | 0.00 | 0.00 | 64 | 1017.2 |
| 20260503035605 | 53 | 144 | 0.0 | 0.0 | 0.00 | 0.00 | 0.00 | 55 | 1017.6 |
| 20260503032606 | 54 | 168 | 0.0 | 0.0 | 0.00 | 0.00 | 0.00 | 51 | 1017.6 |